Probability
0 0 0 0 0 0 0 0 0 0 0 0 0 0 0 0 1 2 3 2 2 2 3 3 3 3 3 4 4 3 4 5 6 5 5 4 3 3 3 2 1 2 3 3
0 0 0 0 0 0 0 0 0 0 0 0 0 0 0 0 1 2 3 2 1 2 3 3 3 3 3 3 3 2 2 4 5 5 4 3 3 3 3 3 2 2 3 3
0 0 0 0 0 0 0 0 0 0 0 0 0 0 0 0 1 2 2 1 1 3 3 3 3 3 3 3 3 1 1 3 5 5 4 3 3 3 3 3 2 1 2 3
0 0 0 0 0 0 0 0 0 0 0 0 0 0 0 0 0 1 1 1 2 3 3 3 3 3 3 3 2 1 0 2 4 5 4 4 4 3 3 3 2 1 1 2
0 0 0 0 0 0 0 0 0 0 0 0 0 0 0 0 0 0 0 1 2 3 3 3 3 3 3 3 2 1 0 1 3 5 6 6 5 4 3 3 2 1 1 2
0 0 0 0 0 0 0 0 0 0 0 0 0 0 0 0 0 0 0 0 1 3 3 3 2 3 3 3 2 1 0 0 2 5 6 6 5 4 3 3 2 0 1 2
0 0 0 0 0 0 0 0 0 0 0 0 0 0 0 0 0 0 1 1 1 3 3 2 2 2 2 2 1 0 0 0 1 3 5 5 5 4 3 3 2 1 1 1
0 0 0 0 0 0 0 0 0 0 0 0 0 0 0 0 0 1 2 2 3 4 4 3 3 2 1 1 0 0 0 0 1 3 4 4 5 5 4 3 3 3 2 1
0 0 0 0 0 0 0 0 0 0 0 0 0 0 0 0 1 2 3 3 4 5 6 6 5 2 0 0 0 1 1 1 1 2 3 4 6 6 5 4 3 3 3 3
0 0 0 0 0 0 0 0 0 0 0 0 0 0 0 0 1 2 3 4 5 6 6 6 5 3 1 1 1 2 2 1 1 3 4 5 6 5 4 3 3 3 3 3
0 0 0 0 0 0 0 0 0 0 0 0 0 0 1 1 1 3 3 4 6 6 6 6 6 4 3 3 3 3 2 1 1 4 5 6 5 4 3 2 2 3 3 3
0 0 0 0 0 0 0 0 0 0 0 0 0 1 1 1 2 3 3 4 6 6 6 6 6 6 5 4 3 3 3 2 2 4 5 4 4 3 2 1 1 1 2 2
0 0 0 0 0 0 0 0 0 0 0 0 1 1 2 3 3 3 3 4 6 6 6 6 6 6 6 4 3 3 2 2 1 2 3 3 3 3 2 1 0 0 1 1
0 0 0 0 0 0 0 0 0 0 0 1 2 2 3 3 3 3 3 4 6 6 6 6 6 6 6 5 4 3 2 1 0 1 2 3 3 3 3 2 1 0 0 0
0 0 0 0 0 0 0 0 0 0 0 1 2 2 2 2 2 2 2 3 5 6 6 6 6 6 6 5 5 3 1 0 0 1 3 3 3 3 3 4 3 1 0 0
0 0 0 0 0 0 0 0 0 0 0 1 1 1 1 1 1 1 1 2 5 5 5 4 4 5 4 4 4 2 0 0 1 2 3 3 3 3 3 4 4 3 1 0
0 0 0 0 0 0 0 0 0 0 0 0 0 0 0 0 0 0 1 2 3 3 2 1 1 2 2 2 1 0 0 0 1 2 3 3 3 3 3 4 4 3 2 1
0 0 0 0 0 0 0 0 0 0 0 0 0 0 0 1 1 1 1 2 2 1 0 0 0 1 2 1 0 0 0 0 1 3 3 3 3 3 3 2 2 2 3 3
0 0 0 0 0 0 0 0 0 0 0 0 0 0 0 1 1 2 2 2 1 1 0 0 1 2 2 1 0 0 1 1 2 3 3 3 3 3 2 1 0 1 2 2
0 0 0 0 0 0 0 0 0 0 0 0 0 0 0 0 1 1 1 1 0 0 0 0 1 2 1 0 0 1 2 2 2 2 3 3 3 2 1 0 0 0 1 1
0 0 0 0 0 0 0 0 0 0 0 0 0 0 0 0 0 0 0 0 0 0 0 0 1 1 0 0 0 1 2 1 1 2 2 2 1 1 0 0 0 0 0 0
0 0 0 0 0 0 0 0 0 0 0 0 0 0 0 0 0 0 0 0 0 0 0 0 0 0 0 0 0 1 1 0 0 1 1 1 0 0 0 0 0 0 0 0
0 0 0 0 0 0 0 0 0 0 0 0 0 0 0 0 0 0 0 0 0 0 0 0 0 0 0 0 0 0 0 0 0 0 0 0 0 0 0 0 0 0 0 0
0 0 0 0 0 0 0 0 0 0 0 0 0 0 0 0 0 0 0 0 0 0 0 0 0 0 0 0 0 0 0 0 0 0 0 0 0 0 0 0 0 0 0 0
0 0 0 0 0 0 0 0 0 0 0 0 0 0 0 0 0 0 0 0 0 0 0 0 0 0 0 0 0 0 0 0 0 0 0 0 0 0 0 0 0 0 0 0
0 0 0 0 0 0 0 0 0 0 0 0 0 0 0 0 0 0 0 0 0 0 0 0 0 0 0 0 0 0 0 0 0 0 0 0 0 0 0 0 0 0 0 0
0 0 0 0 0 0 0 0 0 0 0 0 0 0 0 0 0 0 0 0 0 0 0 0 0 0 0 0 0 0 0 0 0 0 0 0 0 0 0 0 0 0 0 0
Wind_Speed
10 9 8 8 9 9 10 10 10 9 8 5 3 2 1 2 2 1 1 1 1 2 2 2 2 3 3 3 3 4 4 4 4 4 3 4 3 3 2 2 2 2 2 2
11 10 10 12 11 11 12 11 11 11 9 5 3 2 1 0 1 1 1 1 1 1 2 2 3 3 4 4 4 4 4 4 4 4 3 3 3 3 2 2 2 2 2 3
9 10 11 11 9 9 8 9 8 9 6 4 3 2 2 1 1 1 1 1 1 1 2 3 3 3 3 4 3 4 4 4 4 4 4 4 3 3 2 3 3 2 3 3
7 8 11 4 2 3 5 6 6 6 4 4 4 3 2 1 1 1 1 1 1 1 2 3 2 2 3 4 4 4 4 5 5 5 4 4 4 4 3 3 3 3 3 3
6 9 10 7 3 3 5 7 5 5 5 4 3 3 2 1 1 1 1 0 1 1 2 2 2 2 2 3 4 4 4 4 5 5 5 4 4 5 4 3 3 3 3 4
7 8 8 4 1 2 4 6 2 2 3 3 2 3 1 1 0 1 1 0 1 2 2 2 2 2 3 3 3 4 4 4 5 5 5 5 5 5 4 3 4 4 3 4
10 10 7 2 1 2 4 2 3 4 3 4 3 3 2 3 2 2 1 1 1 1 2 2 3 3 3 3 4 4 4 4 4 5 6 5 5 4 4 4 4 4 4 4
9 10 7 1 3 3 3 4 5 5 4 4 4 4 4 3 3 2 2 2 1 2 2 3 3 3 4 4 4 3 3 4 4 5 5 5 5 4 4 4 4 4 4 4
5 4 2 4 4 5 6 6 7 6 5 4 5 5 5 4 4 4 3 2 2 2 3 3 3 3 4 4 3 3 4 4 4 5 5 5 5 5 4 4 4 4 3 4
7 5 5 6 6 7 7 7 7 7 6 5 5 6 4 4 5 4 3 3 2 2 3 4 3 3 4 3 3 3 4 4 4 4 5 5 4 4 4 4 5 4 4 4
10 8 8 7 6 7 7 7 8 7 6 5 5 6 5 5 5 5 4 3 2 3 4 4 4 3 3 3 3 4 4 4 4 4 4 4 4 4 5 5 6 6 5 5
9 8 8 8 7 8 8 8 8 8 7 6 5 6 6 5 5 5 5 4 3 3 4 4 4 3 3 3 3 4 4 4 3 3 3 3 3 2 3 4 7 8 8 6
8 9 9 10 10 10 9 9 8 8 7 7 6 6 6 6 5 5 5 5 5 5 4 4 4 4 4 4 4 5 5 4 3 4 4 4 4 4 3 2 3 5 7 7
7 7 9 8 9 9 9 10 9 9 8 7 6 5 6 6 6 6 5 5 5 4 4 4 4 4 4 4 5 5 4 4 4 3 4 4 4 4 4 4 3 2 3 6
7 7 8 8 9 9 9 9 9 8 7 7 6 6 6 6 6 6 5 5 4 4 5 4 4 4 3 3 4 4 3 3 3 3 3 3 4 4 4 4 4 3 2 3
7 6 7 8 8 9 9 9 8 7 7 7 7 6 6 6 6 5 5 4 4 4 4 4 4 3 3 3 3 3 2 4 3 3 3 3 3 3 4 4 4 4 4 4
6 6 7 8 8 9 9 8 8 8 7 7 6 6 5 5 5 5 5 4 4 4 4 4 4 3 3 3 2 2 2 3 4 3 3 3 3 4 4 4 4 4 4 5
6 6 7 7 7 8 9 8 8 8 7 6 6 6 6 5 5 5 5 4 4 4 4 4 3 2 2 1 1 1 2 2 2 3 3 3 3 4 3 3 4 4 3 4
6 6 6 7 7 7 7 7 7 7 7 6 6 6 6 5 5 4 4 4 4 4 4 2 3 2 2 2 1 1 2 2 2 2 2 3 3 2 2 3 2 2 2 3
6 6 6 5 6 6 6 6 6 6 6 6 6 6 6 5 5 4 3 3 3 3 3 2 2 1 2 1 1 1 1 2 2 2 2 2 2 2 1 1 2 2 2 2
6 6 6 5 6 6 6 6 5 5 5 6 6 6 6 5 5 4 3 3 4 4 4 3 1 1 1 1 1 1 1 1 1 1 1 1 1 1 1 1 1 1 1 2
5 5 6 6 6 6 5 5 5 5 5 5 6 6 5 5 5 4 3 3 3 4 3 2 1 2 2 2 1 1 0 0 0 0 0 0 0 0 1 1 1 1 1 1
4 5 6 6 6 6 6 5 5 5 5 5 5 5 5 4 3 3 4 3 3 4 3 2 3 4 4 2 1 1 1 1 1 0 0 0 0 0 1 1 1 1 0 0
5 5 5 5 6 6 6 6 5 4 5 5 5 5 5 4 3 3 2 3 4 4 3 3 4 4 4 2 1 1 1 1 1 1 1 1 1 1 1 1 1 1 1 1
5 5 5 5 5 4 4 5 5 4 4 4 5 5 4 3 3 3 3 3 3 3 3 3 4 3 2 1 1 1 1 1 1 1 1 1 1 1 1 1 1 1 1 1
5 4 4 4 4 3 3 3 3 3 3 3 4 4 4 3 3 2 2 3 3 3 3 2 2 2 2 2 2 2 1 1 1 1 1 1 1 1 1 1 1 1 1 1
5 4 3 3 3 3 3 3 3 3 3 3 4 4 4 3 3 3 3 3 3 3 3 3 2 2 2 2 2 2 2 1 1 1 1 1 1 0 1 1 1 1 1 1
Wind_Direction
279 283 276 273 271 268 263 265 271 282 287 276 267 261 225 166 141 122 125 164 175 167 170 190 220 198 183 184 178 183 177 173 174 168 167 167 174 177 172 172 180 179 174 172
282 279 276 271 265 263 264 266 267 274 279 291 290 314 314 225 154 161 184 201 214 210 202 210 222 210 182 185 190 185 182 181 170 167 166 165 171 168 157 173 180 175 181 175
275 284 283 266 259 255 255 263 266 268 279 298 294 274 258 246 207 188 185 183 216 243 240 240 227 212 196 188 189 191 188 170 163 164 165 173 175 163 171 186 190 196 195 173
275 278 264 269 295 277 272 271 277 279 285 285 286 285 261 234 267 238 196 202 211 232 239 257 247 227 207 197 192 201 192 172 164 168 171 177 177 181 192 196 192 203 209 192
263 267 272 270 279 292 285 278 277 278 275 276 269 269 258 210 173 269 264 251 236 246 251 251 248 236 215 211 198 200 196 186 174 168 169 179 190 194 194 195 198 203 207 200
254 262 265 274 22 345 301 277 301 309 322 314 292 264 277 12 43 231 244 271 255 263 280 271 260 241 218 218 209 207 202 198 182 175 178 187 196 200 199 198 202 200 209 205
248 256 265 314 351 320 265 298 11 351 339 322 301 310 334 352 356 348 323 269 257 263 263 262 251 228 229 233 227 214 197 198 191 182 187 190 194 195 196 200 201 206 213 214
238 247 253 327 281 272 297 321 323 319 313 315 323 328 335 337 329 312 285 265 253 253 265 269 254 230 228 233 231 213 199 198 199 193 197 194 183 192 197 202 208 216 217 217
259 260 311 327 316 315 313 309 312 315 319 318 311 309 311 307 304 299 287 271 254 241 255 265 257 242 237 237 221 213 205 202 201 198 200 189 186 192 195 199 203 214 218 218
275 274 291 305 308 310 311 309 316 322 320 312 303 299 301 302 296 295 292 277 259 251 258 267 262 256 247 234 219 212 214 209 203 202 197 190 191 192 198 203 205 210 219 218
281 288 298 296 306 319 321 320 316 314 310 304 296 293 295 292 289 290 290 282 265 256 259 263 262 260 254 232 222 222 215 211 208 206 201 198 200 207 209 212 209 209 215 209
276 290 295 302 315 322 318 314 311 308 304 300 293 288 289 289 291 291 293 289 279 268 264 267 267 260 258 248 229 225 222 219 215 208 201 200 203 226 243 230 220 219 222 221
295 307 306 307 310 312 308 306 303 301 296 292 290 286 285 283 284 285 286 284 275 269 266 267 266 261 256 243 238 229 224 217 214 213 205 204 205 206 224 262 238 226 223 219
313 311 299 304 309 309 307 307 304 299 292 289 286 284 283 285 287 287 285 286 281 276 272 267 267 262 252 241 241 235 229 225 218 212 207 207 210 210 208 213 222 235 231 213
298 298 295 301 304 305 304 301 296 294 297 294 289 284 282 282 283 284 287 289 283 277 275 272 268 272 263 250 247 237 225 225 221 214 210 214 215 214 213 214 217 217 210 205
296 297 299 299 299 302 302 299 296 294 293 291 289 286 286 285 285 285 285 283 273 272 274 272 271 275 264 246 243 235 225 229 231 220 218 221 217 215 215 215 212 211 210 197
294 297 303 302 303 305 305 307 304 299 299 301 303 303 296 290 289 287 286 278 268 268 276 276 272 273 264 242 229 232 227 224 227 230 227 226 224 222 222 219 218 216 211 199
296 296 294 297 303 304 305 306 305 305 305 310 316 306 292 285 283 285 290 289 287 283 279 281 285 285 271 250 229 228 221 217 217 225 232 230 232 227 223 224 223 223 213 197
302 301 302 304 308 307 306 312 315 315 317 317 314 309 304 299 295 294 296 301 301 298 294 296 303 304 309 288 257 231 226 234 234 240 245 248 247 235 223 221 225 220 204 188
315 316 312 317 316 314 312 316 319 320 324 326 320 311 308 307 310 310 315 312 307 309 315 328 309 281 277 283 283 251 247 249 251 251 247 238 246 249 238 223 220 213 200 192
322 325 324 322 317 315 315 320 321 322 326 326 325 321 322 327 330 328 322 315 319 328 327 332 324 323 327 357 309 261 256 252 245 247 253 239 238 265 264 239 226 232 224 202
322 325 323 319 316 317 322 324 325 325 328 332 333 330 332 337 335 332 332 325 328 341 342 343 347 4 2 360 335 303 292 285 274 268 283 301 270 270 280 284 263 260 267 238
310 312 314 315 319 321 325 327 330 330 332 332 329 328 329 328 328 329 327 333 341 351 347 351 2 1 354 356 359 1 23 13 344 330 346 9 25 360 334 332 329 330 327 312
308 308 308 312 318 320 325 331 334 335 335 331 330 330 329 333 336 335 330 341 352 351 351 2 7 357 343 346 5 13 22 15 2 0 14 25 28 24 11 0 351 355 5 4
306 306 309 316 317 319 323 327 328 334 335 332 333 335 333 332 329 332 347 359 358 348 349 358 358 349 342 358 11 8 6 8 9 3 354 21 26 9 355 359 356 353 358 341
310 311 313 312 313 316 313 312 313 320 326 327 327 331 329 330 334 341 347 348 348 343 340 344 1 8 6 5 3 358 356 358 1 348 328 334 6 3 352 355 338 321 319 312
304 306 309 308 311 313 313 312 314 318 323 320 323 328 330 339 350 357 354 347 343 347 353 359 5 8 9 4 0 355 354 353 350 350 347 336 339 334 329 319 312 312 315 321